| time (UTC) | temp F | wind direction | speed MPH | gust MPH | rain 1hr in | rain 24hr in | rain mn in | humidity % | barometer mb |
| 20260903105032 | 69 | 263 | 0.0 | 0.0 | 0.00 | 0.00 | 0.00 | 94 | 1015.7 |
| 20260903104531 | 69 | 272 | 0.0 | 0.0 | 0.00 | 0.00 | 0.00 | 93 | 1015.5 |
| 20260903104027 | 69 | 254 | 0.0 | 0.0 | 0.00 | 0.00 | 0.00 | 93 | 1015.5 |
| 20260903103523 | 69 | 277 | 0.0 | 0.0 | 0.00 | 0.00 | 0.00 | 93 | 1015.4 |
| 20260903103019 | 69 | 266 | 0.0 | 0.0 | 0.00 | 0.00 | 0.00 | 93 | 1015.5 |
| 20260903102514 | 69 | 271 | 0.0 | 0.0 | 0.00 | 0.00 | 0.00 | 93 | 1015.6 |
| 20260903102013 | 69 | 278 | 0.0 | 0.0 | 0.00 | 0.00 | 0.00 | 93 | 1015.6 |
| 20260903101508 | 69 | 288 | 1.0 | 1.0 | 0.00 | 0.00 | 0.00 | 93 | 1015.5 |
| 20260903101004 | 70 | 251 | 0.0 | 0.0 | 0.00 | 0.00 | 0.00 | 92 | 1015.7 |
| 20260903100459 | 70 | 274 | 0.0 | 0.0 | 0.00 | 0.00 | 0.00 | 92 | 1015.6 |
| 20260903095956 | 70 | 265 | 0.0 | 0.0 | 0.00 | 0.00 | 0.00 | 92 | 1015.6 |
| 20260903095456 | 70 | 263 | 0.0 | 0.0 | 0.00 | 0.00 | 0.00 | 92 | 1015.6 |
| 20260903094951 | 70 | 246 | 0.0 | 0.0 | 0.00 | 0.00 | 0.00 | 91 | 1015.6 |
| 20260903094450 | 70 | 275 | 0.0 | 0.0 | 0.00 | 0.00 | 0.00 | 91 | 1015.6 |
| 20260903093947 | 70 | 273 | 0.0 | 0.0 | 0.00 | 0.00 | 0.00 | 91 | 1015.4 |
| 20260903093441 | 70 | 268 | 0.0 | 0.0 | 0.00 | 0.00 | 0.00 | 91 | 1015.4 |
| 20260903092937 | 70 | 287 | 0.0 | 0.0 | 0.00 | 0.00 | 0.00 | 91 | 1015.4 |
| 20260903092437 | 70 | 268 | 0.0 | 0.0 | 0.00 | 0.00 | 0.00 | 91 | 1015.4 |
| 20260903091936 | 70 | 270 | 0.0 | 0.0 | 0.00 | 0.00 | 0.00 | 90 | 1015.2 |
| 20260903091434 | 71 | 270 | 0.0 | 0.0 | 0.00 | 0.00 | 0.00 | 90 | 1015.4 |
| 20260903090929 | 71 | 270 | 0.0 | 0.0 | 0.00 | 0.00 | 0.00 | 90 | 1015.2 |
| 20260903090425 | 71 | 270 | 0.0 | 0.0 | 0.00 | 0.00 | 0.00 | 90 | 1015.3 |
| 20260903085924 | 71 | 270 | 0.0 | 0.0 | 0.00 | 0.00 | 0.00 | 90 | 1015.4 |
| 20260903085422 | 71 | 267 | 0.0 | 0.0 | 0.00 | 0.00 | 0.00 | 89 | 1015.3 |
| 20260903084922 | 71 | 271 | 0.0 | 0.0 | 0.00 | 0.00 | 0.00 | 89 | 1015.2 |
| 20260903084421 | 72 | 265 | 0.0 | 0.0 | 0.00 | 0.00 | 0.00 | 88 | 1015.3 |
| 20260903083916 | 72 | 265 | 0.0 | 0.0 | 0.00 | 0.00 | 0.00 | 87 | 1015.4 |
| 20260903083412 | 72 | 280 | 0.0 | 0.0 | 0.00 | 0.00 | 0.00 | 86 | 1015.3 |
| 20260903082911 | 72 | 274 | 0.0 | 0.0 | 0.00 | 0.00 | 0.00 | 86 | 1015.2 |
| 20260903082406 | 72 | 273 | 0.0 | 0.0 | 0.00 | 0.00 | 0.00 | 86 | 1015.1 |
| 20260903081901 | 72 | 259 | 0.0 | 0.0 | 0.00 | 0.00 | 0.00 | 85 | 1015.2 |
| 20260903081356 | 73 | 259 | 0.0 | 0.0 | 0.00 | 0.00 | 0.00 | 85 | 1015.0 |
| 20260903080853 | 73 | 271 | 0.0 | 0.0 | 0.00 | 0.00 | 0.00 | 84 | 1014.9 |
| 20260903080349 | 73 | 265 | 0.0 | 0.0 | 0.00 | 0.00 | 0.00 | 83 | 1014.8 |
| 20260903075849 | 73 | 263 | 0.0 | 0.0 | 0.00 | 0.00 | 0.00 | 83 | 1014.8 |
| 20260903075345 | 73 | 262 | 0.0 | 0.0 | 0.00 | 0.00 | 0.00 | 83 | 1014.9 |
| 20260903074845 | 74 | 269 | 0.0 | 0.0 | 0.00 | 0.00 | 0.00 | 82 | 1015.0 |
| 20260903074344 | 74 | 243 | 0.0 | 0.0 | 0.00 | 0.00 | 0.00 | 82 | 1014.9 |
| 20260903073840 | 74 | 234 | 1.0 | 1.0 | 0.00 | 0.00 | 0.00 | 82 | 1014.9 |
| 20260903073335 | 74 | 272 | 0.0 | 0.0 | 0.00 | 0.00 | 0.00 | 82 | 1015.0 |
| 20260903072831 | 74 | 238 | 0.0 | 0.0 | 0.00 | 0.00 | 0.00 | 82 | 1015.0 |
| 20260903072327 | 73 | 240 | 0.0 | 0.0 | 0.00 | 0.00 | 0.00 | 84 | 1014.9 |
| 20260903071824 | 73 | 238 | 0.0 | 0.0 | 0.00 | 0.00 | 0.00 | 84 | 1014.9 |
| 20260903071319 | 73 | 257 | 0.0 | 0.0 | 0.00 | 0.00 | 0.00 | 83 | 1015.0 |
| 20260903070814 | 74 | 273 | 0.0 | 0.0 | 0.00 | 0.00 | 0.00 | 83 | 1015.0 |
| 20260903070309 | 73 | 275 | 0.0 | 0.0 | 0.00 | 0.00 | 0.00 | 83 | 1014.9 |
| 20260903065804 | 73 | 264 | 0.0 | 0.0 | 0.00 | 0.00 | 0.00 | 83 | 1014.9 |
| 20260903065306 | 73 | 263 | 0.0 | 0.0 | 0.00 | 0.00 | 0.00 | 84 | 1014.7 |
| 20260903064802 | 73 | 266 | 0.0 | 0.0 | 0.00 | 0.00 | 0.00 | 85 | 1014.8 |
| 20260903064258 | 73 | 266 | 0.0 | 0.0 | 0.00 | 0.00 | 0.00 | 85 | 1014.9 |
| 20260903063754 | 73 | 246 | 0.0 | 0.0 | 0.00 | 0.00 | 0.00 | 85 | 1015.0 |
| 20260903063249 | 73 | 266 | 0.0 | 0.0 | 0.00 | 0.00 | 0.00 | 85 | 1014.8 |
| 20260903062745 | 73 | 276 | 0.0 | 0.0 | 0.00 | 0.00 | 0.00 | 85 | 1014.8 |
| 20260903062244 | 73 | 275 | 0.0 | 0.0 | 0.00 | 0.00 | 0.00 | 85 | 1015.0 |
| 20260903061741 | 73 | 266 | 0.0 | 0.0 | 0.00 | 0.00 | 0.00 | 85 | 1014.8 |
| 20260903061239 | 73 | 294 | 0.0 | 0.0 | 0.00 | 0.00 | 0.00 | 85 | 1014.9 |
| 20260903060736 | 73 | 271 | 0.0 | 0.0 | 0.00 | 0.00 | 0.00 | 84 | 1014.8 |
| 20260903060235 | 73 | 267 | 0.0 | 0.0 | 0.00 | 0.00 | 0.00 | 83 | 1015.0 |
| 20260903055733 | 74 | 262 | 0.0 | 0.0 | 0.00 | 0.00 | 0.00 | 84 | 1014.9 |
| 20260903055231 | 73 | 248 | 0.0 | 0.0 | 0.00 | 0.00 | 0.00 | 84 | 1014.6 |
| 20260903054726 | 73 | 262 | 0.0 | 0.0 | 0.00 | 0.00 | 0.00 | 84 | 1015.0 |
| 20260903054221 | 73 | 256 | 0.0 | 0.0 | 0.00 | 0.00 | 0.00 | 84 | 1014.6 |
| 20260903053718 | 73 | 250 | 0.0 | 0.0 | 0.00 | 0.00 | 0.00 | 84 | 1014.7 |
| 20260903053213 | 74 | 254 | 0.0 | 0.0 | 0.00 | 0.00 | 0.00 | 83 | 1014.6 |
| 20260903052709 | 74 | 251 | 0.0 | 0.0 | 0.00 | 0.00 | 0.00 | 83 | 1014.9 |
| 20260903052204 | 74 | 279 | 0.0 | 0.0 | 0.00 | 0.00 | 0.00 | 83 | 1014.7 |
| 20260903051705 | 74 | 263 | 0.0 | 0.0 | 0.00 | 0.00 | 0.00 | 83 | 1014.8 |
| 20260903051200 | 74 | 272 | 0.0 | 0.0 | 0.00 | 0.00 | 0.00 | 82 | 1014.9 |
| 20260903050656 | 74 | 268 | 0.0 | 0.0 | 0.00 | 0.00 | 0.00 | 82 | 1014.8 |
| 20260903050154 | 74 | 268 | 0.0 | 0.0 | 0.00 | 0.00 | 0.00 | 81 | 1014.8 |
| 20260903045649 | 75 | 268 | 0.0 | 0.0 | 0.00 | 0.00 | 0.00 | 80 | 1014.8 |
| 20260903045146 | 75 | 277 | 0.0 | 0.0 | 0.00 | 0.00 | 0.00 | 80 | 1014.6 |
| 20260903044642 | 75 | 284 | 0.0 | 0.0 | 0.00 | 0.00 | 0.00 | 80 | 1014.7 |
| 20260903044137 | 75 | 264 | 0.0 | 0.0 | 0.00 | 0.00 | 0.00 | 79 | 1014.6 |
| 20260903043634 | 75 | 282 | 0.0 | 0.0 | 0.00 | 0.00 | 0.00 | 79 | 1014.6 |
| 20260903043133 | 75 | 282 | 0.0 | 0.0 | 0.00 | 0.00 | 0.00 | 79 | 1014.6 |
| 20260903042632 | 75 | 269 | 0.0 | 0.0 | 0.00 | 0.00 | 0.00 | 79 | 1014.8 |
| 20260903042127 | 75 | 265 | 0.0 | 0.0 | 0.00 | 0.00 | 0.00 | 79 | 1014.5 |
| 20260903041624 | 75 | 302 | 0.0 | 0.0 | 0.00 | 0.00 | 0.00 | 78 | 1014.5 |
| 20260903041120 | 75 | 243 | 0.0 | 0.0 | 0.00 | 0.00 | 0.00 | 78 | 1014.5 |
| 20260903040618 | 75 | 271 | 0.0 | 0.0 | 0.00 | 0.00 | 0.00 | 78 | 1014.8 |
| 20260903040115 | 75 | 266 | 0.0 | 0.0 | 0.00 | 0.00 | 0.00 | 78 | 1014.7 |
| 20260903035610 | 76 | 256 | 0.0 | 0.0 | 0.00 | 0.00 | 0.00 | 77 | 1014.8 |
| 20260903035106 | 76 | 272 | 0.0 | 0.0 | 0.00 | 0.00 | 0.00 | 77 | 1014.6 |
| 20260903034600 | 76 | 252 | 0.0 | 0.0 | 0.00 | 0.00 | 0.00 | 77 | 1014.5 |
| 20260903034056 | 76 | 269 | 0.0 | 0.0 | 0.00 | 0.00 | 0.00 | 76 | 1014.9 |
| 20260903033551 | 76 | 264 | 0.0 | 0.0 | 0.00 | 0.00 | 0.00 | 76 | 1014.7 |
| 20260903033046 | 76 | 269 | 0.0 | 0.0 | 0.00 | 0.00 | 0.00 | 75 | 1014.6 |
| 20260903032541 | 77 | 247 | 0.0 | 0.0 | 0.00 | 0.00 | 0.00 | 75 | 1014.6 |
| 20260903032036 | 77 | 247 | 0.0 | 0.0 | 0.00 | 0.00 | 0.00 | 74 | 1014.5 |
| 20260903031536 | 77 | 265 | 0.0 | 0.0 | 0.00 | 0.00 | 0.00 | 74 | 1014.6 |
| 20260903031031 | 77 | 270 | 0.0 | 0.0 | 0.00 | 0.00 | 0.00 | 73 | 1014.6 |
| 20260903030527 | 77 | 262 | 0.0 | 0.0 | 0.00 | 0.00 | 0.00 | 73 | 1014.6 |
| 20260903030023 | 78 | 249 | 0.0 | 0.0 | 0.00 | 0.00 | 0.00 | 73 | 1014.5 |
| 20260903025518 | 78 | 264 | 0.0 | 0.0 | 0.00 | 0.00 | 0.00 | 72 | 1014.5 |
| 20260903025014 | 78 | 267 | 0.0 | 0.0 | 0.00 | 0.00 | 0.00 | 72 | 1014.4 |
| 20260903024508 | 78 | 237 | 0.0 | 0.0 | 0.00 | 0.00 | 0.00 | 72 | 1014.4 |
| 20260903024007 | 78 | 292 | 0.0 | 0.0 | 0.00 | 0.00 | 0.00 | 71 | 1014.3 |
| 20260903023503 | 79 | 244 | 0.0 | 0.0 | 0.00 | 0.00 | 0.00 | 70 | 1014.2 |
| 20260903022958 | 79 | 267 | 0.0 | 0.0 | 0.00 | 0.00 | 0.00 | 71 | 1014.2 |
| 20260903022457 | 79 | 229 | 0.0 | 0.0 | 0.00 | 0.00 | 0.00 | 70 | 1014.1 |
| 20260903021955 | 79 | 255 | 0.0 | 0.0 | 0.00 | 0.00 | 0.00 | 69 | 1014.0 |
| 20260903021451 | 79 | 248 | 0.0 | 0.0 | 0.00 | 0.00 | 0.00 | 69 | 1014.2 |
| 20260903020946 | 79 | 268 | 0.0 | 0.0 | 0.00 | 0.00 | 0.00 | 68 | 1014.0 |
| 20260903020442 | 80 | 264 | 0.0 | 0.0 | 0.00 | 0.00 | 0.00 | 68 | 1013.9 |
| 20260903015936 | 80 | 235 | 0.0 | 0.0 | 0.00 | 0.00 | 0.00 | 69 | 1013.8 |
| 20260903015432 | 80 | 278 | 0.0 | 0.0 | 0.00 | 0.00 | 0.00 | 68 | 1013.7 |
| 20260903014927 | 80 | 258 | 0.0 | 0.0 | 0.00 | 0.00 | 0.00 | 67 | 1013.5 |
| 20260903014426 | 81 | 257 | 0.0 | 0.0 | 0.00 | 0.00 | 0.00 | 67 | 1013.6 |
| 20260903013921 | 81 | 273 | 0.0 | 0.0 | 0.00 | 0.00 | 0.00 | 66 | 1013.6 |
| 20260903013421 | 81 | 273 | 0.0 | 0.0 | 0.00 | 0.00 | 0.00 | 64 | 1013.3 |
| 20260903012921 | 82 | 246 | 0.0 | 0.0 | 0.00 | 0.00 | 0.00 | 64 | 1013.3 |
| 20260903012420 | 82 | 267 | 0.0 | 0.0 | 0.00 | 0.00 | 0.00 | 63 | 1013.4 |
| 20260903011919 | 83 | 282 | 0.0 | 0.0 | 0.00 | 0.00 | 0.00 | 62 | 1013.1 |
| 20260903011414 | 83 | 285 | 0.0 | 0.0 | 0.00 | 0.00 | 0.00 | 61 | 1013.2 |
| 20260903010909 | 84 | 264 | 0.0 | 0.0 | 0.00 | 0.00 | 0.00 | 59 | 1013.1 |
| 20260903010404 | 84 | 256 | 0.0 | 0.0 | 0.00 | 0.00 | 0.00 | 59 | 1013.1 |
| 20260903005902 | 85 | 230 | 0.0 | 0.0 | 0.00 | 0.00 | 0.00 | 59 | 1013.2 |
| 20260903005357 | 86 | 222 | 0.0 | 0.0 | 0.00 | 0.00 | 0.00 | 57 | 1013.2 |
| 20260903004854 | 87 | 218 | 0.0 | 0.0 | 0.00 | 0.00 | 0.00 | 54 | 1013.1 |
| 20260903004349 | 88 | 197 | 1.0 | 1.0 | 0.00 | 0.00 | 0.00 | 52 | 1013.0 |
| 20260903003844 | 89 | 222 | 0.0 | 0.0 | 0.00 | 0.00 | 0.00 | 50 | 1013.0 |
| 20260903003344 | 91 | 235 | 0.0 | 1.0 | 0.00 | 0.00 | 0.00 | 47 | 1013.1 |
| 20260903002844 | 91 | 291 | 1.0 | 1.0 | 0.00 | 0.00 | 0.00 | 44 | 1013.0 |
| 20260903002339 | 93 | 243 | 0.0 | 0.0 | 0.00 | 0.00 | 0.00 | 43 | 1013.1 |
| 20260903001834 | 93 | 281 | 0.0 | 0.0 | 0.00 | 0.00 | 0.00 | 42 | 1012.8 |
| 20260903001329 | 94 | 237 | 0.0 | 0.0 | 0.00 | 0.00 | 0.00 | 42 | 1013.0 |
| 20260903000829 | 94 | 198 | 3.0 | 4.0 | 0.00 | 0.00 | 0.00 | 40 | 1013.0 |
| 20260903000325 | 95 | 245 | 1.0 | 1.0 | 0.00 | 0.00 | 0.00 | 39 | 1013.0 |
| 20260902235821 | 96 | 166 | 0.0 | 1.0 | 0.00 | 0.00 | 0.00 | 39 | 1012.8 |
| 20260902235317 | 96 | 259 | 1.0 | 1.0 | 0.00 | 0.00 | 0.00 | 38 | 1012.8 |
| 20260902234811 | 96 | 95 | 2.0 | 5.0 | 0.00 | 0.00 | 0.00 | 37 | 1012.8 |
| 20260902234311 | 96 | 225 | 1.0 | 3.0 | 0.00 | 0.00 | 0.00 | 38 | 1013.0 |
| 20260902233810 | 96 | 226 | 2.0 | 4.0 | 0.00 | 0.00 | 0.00 | 37 | 1013.0 |
| 20260902233310 | 97 | 213 | 3.0 | 4.0 | 0.00 | 0.00 | 0.00 | 36 | 1013.0 |
| 20260902232809 | 97 | 194 | 2.0 | 3.0 | 0.00 | 0.00 | 0.00 | 36 | 1013.0 |
| 20260902232309 | 97 | 90 | 4.0 | 5.0 | 0.00 | 0.00 | 0.00 | 36 | 1013.2 |
| 20260902231808 | 98 | 226 | 2.0 | 3.0 | 0.00 | 0.00 | 0.00 | 37 | 1013.1 |
| 20260902231303 | 99 | 207 | 2.0 | 3.0 | 0.00 | 0.00 | 0.00 | 36 | 1013.2 |
| 20260902230759 | 98 | 245 | 2.0 | 3.0 | 0.00 | 0.00 | 0.00 | 34 | 1013.1 |
| 20260902230257 | 98 | 216 | 2.0 | 3.0 | 0.00 | 0.00 | 0.00 | 35 | 1013.2 |
| 20260902225752 | 98 | 243 | 1.0 | 1.0 | 0.00 | 0.00 | 0.00 | 36 | 1013.1 |
| 20260902225247 | 99 | 186 | 3.0 | 5.0 | 0.00 | 0.00 | 0.00 | 34 | 1013.3 |
| 20260902224746 | 99 | 195 | 5.0 | 5.0 | 0.00 | 0.00 | 0.00 | 34 | 1013.2 |
| 20260902224242 | 100 | 186 | 5.0 | 5.0 | 0.00 | 0.00 | 0.00 | 36 | 1013.3 |
| 20260902223738 | 100 | 260 | 1.0 | 1.0 | 0.00 | 0.00 | 0.00 | 33 | 1013.3 |
| 20260902223237 | 100 | 217 | 2.0 | 3.0 | 0.00 | 0.00 | 0.00 | 34 | 1013.4 |
| 20260902222737 | 99 | 253 | 2.0 | 3.0 | 0.00 | 0.00 | 0.00 | 34 | 1013.3 |
| 20260902222236 | 99 | 245 | 2.0 | 4.0 | 0.00 | 0.00 | 0.00 | 33 | 1013.4 |
| 20260902221731 | 98 | 235 | 2.0 | 3.0 | 0.00 | 0.00 | 0.00 | 33 | 1013.5 |
| 20260902221230 | 98 | 168 | 6.0 | 7.0 | 0.00 | 0.00 | 0.00 | 33 | 1013.5 |
| 20260902220726 | 100 | 241 | 5.0 | 5.0 | 0.00 | 0.00 | 0.00 | 32 | 1013.5 |
| 20260902220225 | 102 | 185 | 3.0 | 4.0 | 0.00 | 0.00 | 0.00 | 32 | 1013.5 |
| 20260902215721 | 103 | 237 | 2.0 | 3.0 | 0.00 | 0.00 | 0.00 | 31 | 1013.5 |
| 20260902215216 | 103 | 299 | 2.0 | 3.0 | 0.00 | 0.00 | 0.00 | 31 | 1013.5 |
| 20260902214712 | 103 | 231 | 1.0 | 1.0 | 0.00 | 0.00 | 0.00 | 31 | 1013.6 |
| 20260902214210 | 103 | 268 | 2.0 | 3.0 | 0.00 | 0.00 | 0.00 | 30 | 1013.5 |
| 20260902213706 | 104 | 278 | 2.0 | 3.0 | 0.00 | 0.00 | 0.00 | 31 | 1013.7 |
| 20260902213201 | 103 | 247 | 2.0 | 3.0 | 0.00 | 0.00 | 0.00 | 31 | 1013.7 |
| 20260902212655 | 102 | 263 | 2.0 | 3.0 | 0.00 | 0.00 | 0.00 | 32 | 1013.7 |
| 20260902212152 | 102 | 204 | 5.0 | 7.0 | 0.00 | 0.00 | 0.00 | 32 | 1013.6 |
| 20260902211648 | 100 | 259 | 0.0 | 1.0 | 0.00 | 0.00 | 0.00 | 34 | 1013.9 |
| 20260902211148 | 97 | 188 | 2.0 | 4.0 | 0.00 | 0.00 | 0.00 | 37 | 1013.9 |
| 20260902210648 | 97 | 240 | 2.0 | 3.0 | 0.00 | 0.00 | 0.00 | 36 | 1013.9 |
| 20260902210143 | 98 | 255 | 1.0 | 1.0 | 0.00 | 0.00 | 0.00 | 37 | 1014.1 |
| 20260902205642 | 99 | 221 | 2.0 | 3.0 | 0.00 | 0.00 | 0.00 | 36 | 1014.0 |
| 20260902205137 | 101 | 236 | 1.0 | 1.0 | 0.00 | 0.00 | 0.00 | 35 | 1014.0 |
| 20260902204632 | 101 | 149 | 4.0 | 5.0 | 0.00 | 0.00 | 0.00 | 35 | 1014.1 |
| 20260902204126 | 100 | 269 | 2.0 | 3.0 | 0.00 | 0.00 | 0.00 | 35 | 1014.3 |
| 20260902203622 | 99 | 202 | 2.0 | 4.0 | 0.00 | 0.00 | 0.00 | 37 | 1014.3 |
| 20260902203122 | 102 | 153 | 5.0 | 7.0 | 0.00 | 0.00 | 0.00 | 34 | 1014.4 |
| 20260902202617 | 102 | 179 | 7.0 | 10.0 | 0.00 | 0.00 | 0.00 | 35 | 1014.3 |
| 20260902202114 | 101 | 201 | 2.0 | 3.0 | 0.00 | 0.00 | 0.00 | 33 | 1014.4 |
| 20260902201609 | 101 | 164 | 4.0 | 7.0 | 0.00 | 0.00 | 0.00 | 34 | 1014.3 |
| 20260902201108 | 99 | 258 | 3.0 | 4.0 | 0.00 | 0.00 | 0.00 | 35 | 1014.6 |
| 20260902200604 | 99 | 193 | 5.0 | 8.0 | 0.00 | 0.00 | 0.00 | 37 | 1014.5 |
| 20260902200059 | 99 | 251 | 0.0 | 0.0 | 0.00 | 0.00 | 0.00 | 37 | 1014.7 |
| 20260902195555 | 99 | 229 | 0.0 | 0.0 | 0.00 | 0.00 | 0.00 | 37 | 1014.7 |
| 20260902195054 | 99 | 170 | 4.0 | 5.0 | 0.00 | 0.00 | 0.00 | 37 | 1015.0 |
| 20260902194553 | 99 | 181 | 4.0 | 10.0 | 0.00 | 0.00 | 0.00 | 37 | 1015.2 |
| 20260902194049 | 100 | 163 | 6.0 | 8.0 | 0.00 | 0.00 | 0.00 | 37 | 1014.9 |
| 20260902193545 | 100 | 20 | 3.0 | 4.0 | 0.00 | 0.00 | 0.00 | 36 | 1015.0 |
| 20260902193044 | 100 | 166 | 9.0 | 11.0 | 0.00 | 0.00 | 0.00 | 36 | 1015.1 |
| 20260902192543 | 98 | 260 | 3.0 | 4.0 | 0.00 | 0.00 | 0.00 | 39 | 1015.1 |
| 20260902192042 | 100 | 219 | 4.0 | 5.0 | 0.00 | 0.00 | 0.00 | 36 | 1015.2 |
| 20260902191537 | 99 | 201 | 3.0 | 7.0 | 0.00 | 0.00 | 0.00 | 37 | 1015.4 |
| 20260902191032 | 100 | 226 | 5.0 | 5.0 | 0.00 | 0.00 | 0.00 | 36 | 1015.3 |
| 20260902190528 | 99 | 202 | 5.0 | 7.0 | 0.00 | 0.00 | 0.00 | 38 | 1015.6 |
| 20260902190023 | 98 | 207 | 3.0 | 4.0 | 0.00 | 0.00 | 0.00 | 38 | 1015.6 |
| 20260902185519 | 98 | 208 | 4.0 | 5.0 | 0.00 | 0.00 | 0.00 | 38 | 1015.7 |
| 20260902185014 | 98 | 240 | 2.0 | 4.0 | 0.00 | 0.00 | 0.00 | 38 | 1015.6 |
| 20260902184509 | 99 | 183 | 6.0 | 8.0 | 0.00 | 0.00 | 0.00 | 36 | 1015.8 |
| 20260902184004 | 99 | 244 | 4.0 | 5.0 | 0.00 | 0.00 | 0.00 | 37 | 1016.1 |
| 20260902183501 | 98 | 142 | 4.0 | 5.0 | 0.00 | 0.00 | 0.00 | 38 | 1015.9 |
| 20260902182957 | 97 | 212 | 2.0 | 3.0 | 0.00 | 0.00 | 0.00 | 39 | 1015.9 |
| 20260902182452 | 97 | 148 | 6.0 | 8.0 | 0.00 | 0.00 | 0.00 | 40 | 1016.4 |
| 20260902181948 | 97 | 99 | 6.0 | 8.0 | 0.00 | 0.00 | 0.00 | 40 | 1016.2 |
| 20260902181444 | 97 | 163 | 5.0 | 7.0 | 0.00 | 0.00 | 0.00 | 39 | 1016.3 |
| 20260902180938 | 99 | 206 | 6.0 | 7.0 | 0.00 | 0.00 | 0.00 | 39 | 1016.4 |
| 20260902180434 | 99 | 280 | 2.0 | 3.0 | 0.00 | 0.00 | 0.00 | 39 | 1016.5 |
| 20260902175930 | 99 | 159 | 3.0 | 4.0 | 0.00 | 0.00 | 0.00 | 38 | 1016.5 |
| 20260902175424 | 99 | 243 | 3.0 | 4.0 | 0.00 | 0.00 | 0.00 | 38 | 1016.7 |
| 20260902174920 | 97 | 278 | 3.0 | 4.0 | 0.00 | 0.00 | 0.00 | 40 | 1016.6 |
| 20260902174417 | 98 | 231 | 3.0 | 4.0 | 0.00 | 0.00 | 0.00 | 39 | 1016.8 |
| 20260902173912 | 97 | 302 | 2.0 | 3.0 | 0.00 | 0.00 | 0.00 | 40 | 1016.8 |
| 20260902173411 | 96 | 188 | 3.0 | 4.0 | 0.00 | 0.00 | 0.00 | 42 | 1017.0 |
| 20260902172906 | 96 | 238 | 4.0 | 5.0 | 0.00 | 0.00 | 0.00 | 42 | 1017.1 |
| 20260902172406 | 97 | 205 | 4.0 | 4.0 | 0.00 | 0.00 | 0.00 | 42 | 1017.1 |
| 20260902171901 | 97 | 211 | 5.0 | 5.0 | 0.00 | 0.00 | 0.00 | 42 | 1017.1 |
| 20260902171356 | 96 | 243 | 2.0 | 3.0 | 0.00 | 0.00 | 0.00 | 44 | 1017.3 |
| 20260902170852 | 96 | 199 | 1.0 | 1.0 | 0.00 | 0.00 | 0.00 | 44 | 1017.6 |
| 20260902170347 | 96 | 331 | 2.0 | 3.0 | 0.00 | 0.00 | 0.00 | 43 | 1017.3 |
| 20260902165843 | 96 | 205 | 2.0 | 3.0 | 0.00 | 0.00 | 0.00 | 44 | 1017.4 |
| 20260902165342 | 96 | 203 | 4.0 | 5.0 | 0.00 | 0.00 | 0.00 | 44 | 1017.6 |
| 20260902164842 | 95 | 258 | 1.0 | 1.0 | 0.00 | 0.00 | 0.00 | 44 | 1017.6 |
| 20260902164337 | 95 | 189 | 7.0 | 8.0 | 0.00 | 0.00 | 0.00 | 44 | 1017.6 |
| 20260902163836 | 96 | 235 | 2.0 | 3.0 | 0.00 | 0.00 | 0.00 | 46 | 1017.8 |
| 20260902163331 | 94 | 262 | 1.0 | 1.0 | 0.00 | 0.00 | 0.00 | 47 | 1017.7 |
| 20260902162830 | 93 | 182 | 4.0 | 5.0 | 0.00 | 0.00 | 0.00 | 48 | 1017.7 |
| 20260902162325 | 93 | 129 | 2.0 | 4.0 | 0.00 | 0.00 | 0.00 | 49 | 1017.8 |
| 20260902161824 | 93 | 197 | 2.0 | 3.0 | 0.00 | 0.00 | 0.00 | 49 | 1018.0 |
| 20260902161320 | 92 | 170 | 7.0 | 8.0 | 0.00 | 0.00 | 0.00 | 50 | 1017.9 |
| 20260902160816 | 93 | 234 | 6.0 | 8.0 | 0.00 | 0.00 | 0.00 | 48 | 1017.9 |
| 20260902160311 | 93 | 236 | 3.0 | 4.0 | 0.00 | 0.00 | 0.00 | 49 | 1017.9 |
| 20260902155809 | 91 | 111 | 5.0 | 7.0 | 0.00 | 0.00 | 0.00 | 51 | 1017.9 |
| 20260902155308 | 90 | 250 | 5.0 | 5.0 | 0.00 | 0.00 | 0.00 | 52 | 1017.9 |
| 20260902154803 | 91 | 201 | 8.0 | 8.0 | 0.00 | 0.00 | 0.00 | 53 | 1017.9 |
| 20260902154259 | 91 | 207 | 7.0 | 11.0 | 0.00 | 0.00 | 0.00 | 53 | 1017.9 |
| 20260902153758 | 91 | 225 | 6.0 | 8.0 | 0.00 | 0.00 | 0.00 | 52 | 1018.1 |
| 20260902153252 | 91 | 138 | 4.0 | 5.0 | 0.00 | 0.00 | 0.00 | 54 | 1017.8 |
| 20260902152748 | 91 | 180 | 2.0 | 5.0 | 0.00 | 0.00 | 0.00 | 54 | 1018.0 |
| 20260902152245 | 89 | 192 | 3.0 | 4.0 | 0.00 | 0.00 | 0.00 | 56 | 1018.2 |
| 20260902151744 | 87 | 280 | 1.0 | 1.0 | 0.00 | 0.00 | 0.00 | 59 | 1018.0 |
| 20260902151240 | 87 | 178 | 4.0 | 4.0 | 0.00 | 0.00 | 0.00 | 59 | 1018.2 |
| 20260902150734 | 88 | 179 | 2.0 | 3.0 | 0.00 | 0.00 | 0.00 | 59 | 1018.0 |
| 20260902150231 | 88 | 257 | 0.0 | 1.0 | 0.00 | 0.00 | 0.00 | 58 | 1017.9 |
| 20260902145724 | 88 | 257 | 2.0 | 3.0 | 0.00 | 0.00 | 0.00 | 58 | 1017.9 |
| 20260902145219 | 86 | 286 | 3.0 | 4.0 | 0.00 | 0.00 | 0.00 | 61 | 1018.0 |
| 20260902144715 | 86 | 209 | 2.0 | 3.0 | 0.00 | 0.00 | 0.00 | 62 | 1017.9 |
| 20260902144210 | 85 | 240 | 3.0 | 4.0 | 0.00 | 0.00 | 0.00 | 63 | 1018.0 |
| 20260902143706 | 84 | 170 | 3.0 | 4.0 | 0.00 | 0.00 | 0.00 | 64 | 1018.1 |
| 20260902143201 | 83 | 123 | 4.0 | 4.0 | 0.00 | 0.00 | 0.00 | 65 | 1018.1 |
| 20260902142656 | 83 | 208 | 2.0 | 3.0 | 0.00 | 0.00 | 0.00 | 68 | 1018.1 |
| 20260902142152 | 83 | 190 | 2.0 | 3.0 | 0.00 | 0.00 | 0.00 | 69 | 1018.2 |
| 20260902141651 | 83 | 205 | 0.0 | 0.0 | 0.00 | 0.00 | 0.00 | 68 | 1018.1 |
| 20260902141147 | 82 | 229 | 0.0 | 0.0 | 0.00 | 0.00 | 0.00 | 69 | 1018.0 |
| 20260902140643 | 82 | 228 | 0.0 | 0.0 | 0.00 | 0.00 | 0.00 | 68 | 1018.1 |
| 20260902140142 | 82 | 231 | 0.0 | 0.0 | 0.00 | 0.00 | 0.00 | 70 | 1018.2 |
| 20260902135642 | 81 | 258 | 0.0 | 0.0 | 0.00 | 0.00 | 0.00 | 71 | 1018.2 |
| 20260902135137 | 79 | 284 | 0.0 | 0.0 | 0.00 | 0.00 | 0.00 | 76 | 1018.1 |
| 20260902134633 | 79 | 278 | 0.0 | 0.0 | 0.00 | 0.00 | 0.00 | 77 | 1018.0 |
| 20260902134132 | 78 | 258 | 0.0 | 0.0 | 0.00 | 0.00 | 0.00 | 78 | 1018.0 |
| 20260902133627 | 77 | 231 | 0.0 | 0.0 | 0.00 | 0.00 | 0.00 | 79 | 1017.8 |
| 20260902133122 | 77 | 253 | 0.0 | 0.0 | 0.00 | 0.00 | 0.00 | 81 | 1017.9 |
| 20260902132617 | 77 | 215 | 0.0 | 0.0 | 0.00 | 0.00 | 0.00 | 81 | 1018.0 |
| 20260902132112 | 76 | 256 | 0.0 | 0.0 | 0.00 | 0.00 | 0.00 | 81 | 1018.0 |
| 20260902131608 | 76 | 256 | 0.0 | 0.0 | 0.00 | 0.00 | 0.00 | 82 | 1018.0 |
| 20260902131103 | 76 | 257 | 0.0 | 0.0 | 0.00 | 0.00 | 0.00 | 82 | 1018.0 |
| 20260902130559 | 75 | 255 | 0.0 | 0.0 | 0.00 | 0.00 | 0.00 | 82 | 1017.9 |
| 20260902130054 | 75 | 278 | 0.0 | 0.0 | 0.00 | 0.00 | 0.00 | 83 | 1018.0 |
| 20260902125550 | 75 | 256 | 0.0 | 0.0 | 0.00 | 0.00 | 0.00 | 84 | 1017.8 |
| 20260902125045 | 75 | 211 | 0.0 | 0.0 | 0.00 | 0.00 | 0.00 | 83 | 1017.7 |
| 20260902124542 | 75 | 270 | 0.0 | 0.0 | 0.00 | 0.00 | 0.00 | 85 | 1017.7 |
| 20260902124042 | 74 | 271 | 0.0 | 0.0 | 0.00 | 0.00 | 0.00 | 88 | 1017.8 |
| 20260902123538 | 73 | 280 | 0.0 | 0.0 | 0.00 | 0.00 | 0.00 | 90 | 1017.6 |
| 20260902123038 | 72 | 281 | 0.0 | 0.0 | 0.00 | 0.00 | 0.00 | 90 | 1017.7 |
| 20260902122532 | 71 | 269 | 0.0 | 0.0 | 0.00 | 0.00 | 0.00 | 92 | 1017.6 |
| 20260902122028 | 71 | 279 | 0.0 | 0.0 | 0.00 | 0.00 | 0.00 | 92 | 1017.5 |
| 20260902121527 | 70 | 242 | 0.0 | 0.0 | 0.00 | 0.00 | 0.00 | 92 | 1017.5 |
| 20260902121022 | 70 | 246 | 0.0 | 0.0 | 0.00 | 0.00 | 0.00 | 92 | 1017.6 |
| 20260902120519 | 70 | 278 | 0.0 | 0.0 | 0.00 | 0.00 | 0.00 | 92 | 1017.5 |
| 20260902120015 | 70 | 261 | 0.0 | 0.0 | 0.00 | 0.00 | 0.00 | 92 | 1017.5 |
| 20260902115509 | 70 | 288 | 0.0 | 0.0 | 0.00 | 0.00 | 0.00 | 92 | 1017.1 |
| 20260902115006 | 70 | 283 | 0.0 | 0.0 | 0.00 | 0.00 | 0.00 | 92 | 1017.3 |
| 20260902114501 | 70 | 274 | 0.0 | 0.0 | 0.00 | 0.00 | 0.00 | 92 | 1017.1 |
| 20260902113956 | 70 | 286 | 0.0 | 0.0 | 0.00 | 0.00 | 0.00 | 92 | 1017.2 |
| 20260902113452 | 70 | 260 | 0.0 | 0.0 | 0.00 | 0.00 | 0.00 | 92 | 1017.2 |
| 20260902112951 | 70 | 297 | 0.0 | 0.0 | 0.00 | 0.00 | 0.00 | 92 | 1017.3 |
| 20260902112447 | 70 | 271 | 0.0 | 0.0 | 0.00 | 0.00 | 0.00 | 92 | 1017.0 |
| 20260902111943 | 70 | 279 | 0.0 | 0.0 | 0.00 | 0.00 | 0.00 | 91 | 1017.2 |
| 20260902111440 | 70 | 279 | 0.0 | 0.0 | 0.00 | 0.00 | 0.00 | 91 | 1016.8 |
| 20260902110935 | 70 | 279 | 0.0 | 0.0 | 0.00 | 0.00 | 0.00 | 91 | 1017.2 |
| 20260902110431 | 70 | 269 | 0.0 | 0.0 | 0.00 | 0.00 | 0.00 | 91 | 1017.2 |
| 20260902105931 | 70 | 257 | 0.0 | 0.0 | 0.00 | 0.00 | 0.00 | 91 | 1016.7 |
| 20260902105426 | 71 | 267 | 0.0 | 0.0 | 0.00 | 0.00 | 0.00 | 91 | 1016.9 |